VK2HIM-1 Weather Reports


time (UTC)temp
C
wind
direction
speed
KPH
gust
KPH
rain 1hr
cm
rain 24hr
cm
rain mn
cm
humidity
%
barometer
mb
20260510080347 16 216 0.0 0.0 0.00 0.00 0.00 82 1030.6
20260510073347 16 216 0.0 0.0 0.00 0.00 0.00 81 1030.0
20260510070347 17 194 0.0 0.0 0.00 0.00 0.00 80 1029.8
20260510063347 17 85 0.0 0.0 0.00 0.00 0.00 80 1029.3
20260510060347 18 148 0.0 0.0 0.00 0.00 0.00 78 1029.0
20260510053347 18 110 1.6 4.8 0.00 0.00 0.00 77 1028.9
20260510050349 20 103 1.6 8.0 0.00 0.00 0.00 73 1028.6
20260510043349 20 138 0.0 0.0 0.00 0.00 0.00 73 1028.5
20260510040349 22 306 0.0 1.6 0.00 0.00 0.00 73 1028.5
20260510033349 22 198 0.0 3.2 0.00 0.00 0.00 71 1028.5
20260510030349 21 197 1.6 4.8 0.00 0.00 0.00 69 1028.6
20260510023349 20 197 1.6 3.2 0.00 0.00 0.00 74 1028.9
20260510020349 20 205 0.0 0.0 0.00 0.00 0.00 72 1029.3
20260510013349 20 208 1.6 4.8 0.00 0.00 0.00 72 1029.5
20260510010349 19 206 3.2 4.8 0.00 0.00 0.00 71 1029.6
20260510003349 19 197 3.2 4.8 0.00 0.00 0.00 74 1029.5
20260510000349 18 212 3.2 4.8 0.00 0.00 0.00 75 1029.3
20260509233348 17 270 0.0 0.0 0.00 0.00 0.00 81 1029.0
20260509230348 16 248 0.0 0.0 0.00 0.00 0.00 87 1029.1
20260509223347 13 253 1.6 4.8 0.00 0.00 0.00 89 1029.2
20260509220347 11 224 0.0 1.6 0.00 0.00 0.00 91 1028.9
20260509213347 10 231 0.0 0.0 0.00 0.00 0.00 90 1028.6
20260509210347 10 218 0.0 0.0 0.00 0.00 0.00 90 1028.2
20260509203347 10 218 0.0 0.0 0.00 0.00 0.00 90 1027.7
20260509200347 10 218 0.0 0.0 0.00 0.00 0.00 90 1027.4
20260509193347 10 218 0.0 0.0 0.00 0.00 0.00 89 1027.0
20260509190347 11 218 0.0 0.0 0.00 0.00 0.00 88 1026.6
20260509183347 11 218 0.0 0.0 0.00 0.00 0.00 88 1026.3
20260509180347 11 218 0.0 0.0 0.00 0.00 0.00 89 1026.0
20260509173346 11 218 0.0 0.0 0.00 0.00 0.00 88 1025.9
20260509170345 11 218 0.0 0.0 0.00 0.00 0.00 87 1025.9
20260509163346 11 218 0.0 0.0 0.00 0.00 0.00 87 1025.9
20260509160345 11 218 0.0 0.0 0.00 0.00 0.00 87 1026.0
20260509153345 11 218 0.0 0.0 0.00 0.00 0.00 87 1026.0
20260509150345 11 218 0.0 0.0 0.00 0.00 0.00 87 1026.1
20260509143345 11 218 0.0 0.0 0.00 0.00 0.00 86 1026.2
20260509140345 11 218 0.0 0.0 0.00 0.00 0.00 86 1026.2
20260509133348 12 218 0.0 0.0 0.00 0.00 0.00 84 1026.2
20260509130348 12 218 0.0 0.0 0.00 0.00 0.00 84 1026.3
20260509123348 12 218 0.0 0.0 0.00 0.00 0.00 84 1026.4
20260509120348 12 218 0.0 0.0 0.00 0.00 0.00 85 1026.5
20260509113348 12 218 0.0 0.0 0.00 0.00 0.00 85 1026.5
20260509110348 12 218 0.0 0.0 0.00 0.00 0.00 85 1026.3
20260509103348 12 218 0.0 0.0 0.00 0.00 0.00 85 1026.2
20260509100348 12 218 0.0 0.0 0.00 0.00 0.00 85 1026.0
20260509093348 12 106 0.0 0.0 0.00 0.00 0.00 84 1025.8
20260509090346 13 106 0.0 0.0 0.00 0.00 0.00 82 1025.5
20260509083346 13 106 0.0 0.0 0.00 0.00 0.00 81 1025.3